contact:dominique.lefevre@mio.osupytheas.fr, maurice.libes@osupytheas.fr, didier.mallarino@osupytheas.fr
Project:EMSO http://www.emso-fr.org/EMSO-France
Depth: 2436.0 m
Title:EMSO Ligure Ouest : Data MII capteur AQUADOPP
Date,Latitude,Longitude,X_East,Y_North,Z_Up,Amplitude_X,Amplitude_Y,Amplitude_Z,Batterie,SoundSpeed,Heading,Pitch,Roll,Pressure,TIS,Speed,Direction
, degrees North, degrees East, m.s-1, m.s-1,m.s-1, 1, 1, 1, Volt, m.s-1, degree, degree, degree, dbar, degree_C, m.s-1, degree
2024-04-30T00:04:03,42.805,6.029,-0.009,-0.021,0.005,103.0,103.0,101.0,13.4,1505.2,3.4,-0.7,1.8,2471.758,13.29,0.022,203.2
2024-04-30T00:07:03,42.805,6.029,-0.032,-0.006,0.002,104.0,103.0,102.0,13.4,1505.2,8.9,-0.8,1.8,2471.82,13.29,0.032,259.4
2024-04-30T00:10:03,42.805,6.029,-0.025,0.0,0.003,104.0,104.0,102.0,13.3,1505.2,3.4,-0.8,1.8,2471.785,13.29,0.025,270.0
2024-04-30T00:13:03,42.805,6.029,-0.012,-0.011,-0.035,104.0,103.0,102.0,13.3,1505.2,358.8,-0.8,1.8,2471.76,13.29,0.016,227.5
2024-04-30T00:16:03,42.805,6.029,-0.016,-0.017,-0.011,104.0,104.0,102.0,13.4,1505.2,358.9,-0.8,1.8,2471.811,13.29,0.023,223.3
2024-04-30T00:19:03,42.805,6.029,0.016,-0.028,0.017,104.0,104.0,102.0,13.3,1505.2,3.9,-0.7,1.8,2471.771,13.29,0.032,150.3
2024-04-30T00:22:03,42.805,6.029,-0.015,-0.014,0.009,104.0,103.0,101.0,13.4,1505.2,9.1,-0.8,1.8,2471.796,13.29,0.02,227.0
2024-04-30T00:25:03,42.805,6.029,-0.013,-0.031,-0.006,104.0,103.0,102.0,13.4,1505.2,357.5,-0.8,1.8,2471.749,13.29,0.033,202.7
2024-04-30T00:28:03,42.805,6.029,-0.022,-0.011,-0.032,104.0,104.0,102.0,13.3,1505.2,5.4,-0.8,1.8,2471.77,13.29,0.024,243.4
2024-04-30T00:31:03,42.805,6.029,-0.029,-0.008,-0.029,105.0,104.0,102.0,13.4,1505.2,359.4,-0.8,1.8,2471.768,13.29,0.03,254.6
2024-04-30T00:34:03,42.805,6.029,-0.01,-0.002,-0.007,103.0,104.0,102.0,13.3,1505.2,9.1,-0.7,1.8,2471.789,13.29,0.01,258.7
2024-04-30T00:37:03,42.805,6.029,-0.018,-0.02,-0.016,104.0,103.0,102.0,13.4,1505.2,8.6,-0.7,1.8,2471.774,13.29,0.026,222.0
2024-04-30T00:40:03,42.805,6.029,-0.013,-0.028,-0.01,104.0,104.0,102.0,13.4,1505.2,354.2,-0.8,1.8,2471.747,13.29,0.03,204.9
2024-04-30T00:43:03,42.805,6.029,-0.024,-0.028,-0.044,104.0,103.0,102.0,13.4,1505.2,356.6,-0.8,1.8,2471.782,13.29,0.036,220.6
2024-04-30T00:46:03,42.805,6.029,-0.023,0.006,0.004,105.0,103.0,102.0,13.4,1505.2,358.9,-0.8,1.8,2471.755,13.29,0.023,284.6
2024-04-30T00:49:03,42.805,6.029,-0.02,-0.008,-0.032,104.0,104.0,101.0,13.3,1505.2,5.2,-0.7,1.8,2471.749,13.29,0.021,248.2
2024-04-30T00:52:03,42.805,6.029,-0.019,-0.021,-0.017,104.0,103.0,102.0,13.4,1505.2,358.9,-0.7,1.8,2471.755,13.29,0.028,222.1
2024-04-30T00:55:03,42.805,6.029,-0.016,-0.01,-0.025,103.0,104.0,103.0,13.3,1505.2,8.2,-0.8,1.8,2471.746,13.29,0.018,238.0
2024-04-30T00:58:03,42.805,6.029,-0.028,-0.009,-0.016,104.0,103.0,102.0,13.4,1505.2,359.4,-0.8,1.8,2471.771,13.29,0.029,252.2
2024-04-30T01:04:03,42.805,6.029,-0.005,-0.039,0.005,105.0,105.0,103.0,13.3,1505.2,1.0,-0.7,1.8,2471.784,13.29,0.039,187.3
2024-04-30T01:07:03,42.805,6.029,-0.033,-0.014,-0.01,107.0,104.0,103.0,13.3,1505.2,3.3,-0.8,1.8,2471.768,13.29,0.035,247.0
2024-04-30T01:10:03,42.805,6.029,-0.013,0.024,-0.024,104.0,104.0,104.0,13.4,1505.2,9.4,-0.7,1.8,2471.8,13.29,0.027,331.6
2024-04-30T01:13:03,42.805,6.029,-0.028,-0.009,-0.005,107.0,103.0,103.0,13.4,1505.2,354.8,-0.7,1.8,2471.785,13.29,0.029,252.2
2024-04-30T01:16:02,42.805,6.029,-0.024,-0.005,-0.017,104.0,103.0,103.0,13.3,1505.2,0.0,-0.8,1.8,2471.752,13.29,0.024,258.2
2024-04-30T01:19:03,42.805,6.029,-0.035,0.008,-0.014,105.0,103.0,102.0,13.4,1505.2,5.6,-0.7,1.8,2471.785,13.29,0.035,282.9
2024-04-30T01:22:03,42.805,6.029,-0.037,0.015,-0.011,103.0,104.0,102.0,13.4,1505.2,4.6,-0.7,1.8,2471.798,13.29,0.039,292.1
2024-04-30T01:25:03,42.805,6.029,-0.017,-0.017,-0.001,105.0,103.0,101.0,13.4,1505.2,353.5,-0.7,1.8,2471.79,13.29,0.024,225.0
2024-04-30T01:28:03,42.805,6.029,-0.013,-0.009,0.015,103.0,103.0,102.0,13.3,1505.2,4.4,-0.7,1.8,2471.748,13.29,0.015,235.3
2024-04-30T01:31:03,42.805,6.029,-0.012,0.003,-0.005,104.0,104.0,101.0,13.4,1505.2,5.7,-0.8,1.8,2471.707,13.29,0.012,284.0
2024-04-30T01:34:03,42.805,6.029,-0.025,0.006,0.011,103.0,105.0,100.0,13.4,1505.2,354.7,-0.8,1.8,2471.783,13.29,0.025,283.5
2024-04-30T01:37:03,42.805,6.029,-0.029,0.001,-0.012,104.0,104.0,102.0,13.4,1505.2,6.6,-0.8,1.8,2471.758,13.29,0.029,272.0
2024-04-30T01:40:03,42.805,6.029,-0.005,0.0,-0.006,104.0,104.0,102.0,13.4,1505.2,359.4,-0.7,1.8,2471.777,13.29,0.005,270.0
2024-04-30T01:43:03,42.805,6.029,-0.04,0.026,0.028,107.0,105.0,101.0,13.4,1505.2,5.9,-0.8,1.8,2471.727,13.29,0.047,303.0
2024-04-30T01:46:03,42.805,6.029,-0.03,0.011,-0.021,104.0,103.0,103.0,13.4,1505.2,0.0,-0.8,1.8,2471.704,13.29,0.031,290.1
2024-04-30T01:49:03,42.805,6.029,-0.005,-0.005,0.033,106.0,102.0,102.0,13.4,1505.2,9.2,-0.8,1.8,2471.699,13.29,0.007,225.0
2024-04-30T01:52:03,42.805,6.029,-0.021,0.016,0.02,104.0,104.0,102.0,13.3,1505.2,8.3,-0.7,1.8,2471.749,13.29,0.026,307.3
2024-04-30T01:55:03,42.805,6.029,-0.029,-0.009,-0.022,105.0,104.0,102.0,13.3,1505.2,355.9,-0.7,1.8,2471.698,13.29,0.03,252.8
2024-04-30T01:58:03,42.805,6.029,-0.012,-0.004,0.003,103.0,103.0,102.0,13.4,1505.2,2.7,-0.7,1.8,2471.712,13.29,0.012,251.6
2024-04-30T02:04:03,42.805,6.029,-0.016,-0.004,0.009,104.0,103.0,102.0,13.4,1505.2,357.8,-0.8,1.8,2471.785,13.29,0.016,256.0
2024-04-30T02:07:03,42.805,6.029,-0.037,0.001,-0.025,104.0,103.0,102.0,13.4,1505.2,8.2,-0.8,1.8,2471.755,13.29,0.037,271.5
2024-04-30T02:10:03,42.805,6.029,-0.033,0.007,-0.013,105.0,103.0,101.0,13.4,1505.2,9.4,-0.8,1.8,2471.758,13.29,0.033,282.0
2024-04-30T02:13:03,42.805,6.029,-0.049,0.004,-0.026,105.0,103.0,101.0,13.4,1505.2,354.0,-0.7,1.8,2471.714,13.29,0.049,274.7
2024-04-30T02:16:03,42.805,6.029,-0.027,0.019,0.003,103.0,103.0,101.0,13.4,1505.2,359.4,-0.8,1.8,2471.746,13.29,0.033,305.1
2024-04-30T02:19:03,42.805,6.029,-0.019,0.011,-0.008,105.0,103.0,102.0,13.4,1505.2,355.0,-0.8,1.9,2471.732,13.29,0.021,300.1
2024-04-30T02:22:03,42.805,6.029,-0.027,-0.002,-0.024,105.0,105.0,101.0,13.4,1505.2,6.5,-0.7,1.8,2471.746,13.29,0.027,265.8
2024-04-30T02:25:03,42.805,6.029,-0.02,0.005,0.009,105.0,104.0,102.0,13.3,1505.2,8.5,-0.8,1.8,2471.704,13.29,0.02,284.0
2024-04-30T02:28:03,42.805,6.029,-0.02,0.019,0.001,103.0,102.0,103.0,13.4,1505.2,6.6,-0.8,1.8,2471.739,13.29,0.027,313.5
2024-04-30T02:31:03,42.805,6.029,-0.012,0.02,0.004,105.0,103.0,101.0,13.3,1505.2,10.3,-0.7,1.8,2471.702,13.29,0.023,329.0
2024-04-30T02:34:03,42.805,6.029,-0.033,-0.019,-0.011,103.0,104.0,102.0,13.3,1505.2,353.9,-0.7,1.8,2471.747,13.29,0.038,240.1
2024-04-30T02:37:03,42.805,6.029,-0.008,0.022,0.008,104.0,104.0,102.0,13.3,1505.2,7.0,-0.8,1.8,2471.695,13.29,0.023,340.0
2024-04-30T02:40:03,42.805,6.029,-0.024,-0.01,-0.02,105.0,103.0,102.0,13.4,1505.2,357.9,-0.7,1.8,2471.703,13.29,0.026,247.4
2024-04-30T02:43:03,42.805,6.029,-0.016,0.021,0.015,102.0,104.0,103.0,13.4,1505.2,357.2,-0.7,1.8,2471.715,13.29,0.026,322.7
2024-04-30T02:46:03,42.805,6.029,-0.027,0.02,-0.038,103.0,102.0,102.0,13.3,1505.2,1.0,-0.7,1.9,2471.701,13.29,0.033,306.5
2024-04-30T02:49:03,42.805,6.029,-0.028,0.03,-0.034,104.0,103.0,102.0,13.3,1505.2,9.5,-0.8,1.8,2471.72,13.29,0.041,317.0
2024-04-30T02:52:03,42.805,6.029,-0.004,-0.001,-0.007,105.0,103.0,102.0,13.3,1505.2,3.9,-0.8,1.9,2471.697,13.29,0.004,256.0
2024-04-30T02:55:03,42.805,6.029,-0.013,-0.003,0.0,102.0,104.0,104.0,13.4,1505.2,8.2,-0.7,1.8,2471.694,13.29,0.013,257.0
2024-04-30T02:58:03,42.805,6.029,-0.022,0.005,-0.008,104.0,105.0,102.0,13.4,1505.2,5.6,-0.8,1.8,2471.715,13.29,0.022,282.8
2024-04-30T03:04:03,42.805,6.029,-0.012,0.006,-0.025,103.0,103.0,103.0,13.3,1505.2,3.0,-0.7,1.8,2471.727,13.29,0.013,296.6
2024-04-30T03:07:03,42.805,6.029,-0.011,0.017,0.002,103.0,105.0,102.0,13.4,1505.2,1.0,-0.7,1.8,2471.698,13.29,0.02,327.1
2024-04-30T03:10:03,42.805,6.029,-0.038,-0.003,-0.013,103.0,104.0,101.0,13.3,1505.2,357.8,-0.8,1.8,2471.702,13.29,0.038,265.5
2024-04-30T03:13:03,42.805,6.029,-0.024,-0.003,0.028,104.0,103.0,104.0,13.4,1505.2,9.1,-0.8,1.8,2471.705,13.29,0.024,262.9
2024-04-30T03:16:03,42.805,6.029,-0.039,0.009,-0.001,105.0,105.0,102.0,13.3,1505.2,354.6,-0.7,1.8,2471.7,13.29,0.04,283.0
2024-04-30T03:19:03,42.805,6.029,-0.029,0.013,-0.015,104.0,103.0,102.0,13.3,1505.2,357.1,-0.8,1.8,2471.716,13.29,0.031,294.1
2024-04-30T03:22:03,42.805,6.029,-0.025,0.003,0.006,105.0,103.0,101.0,13.3,1505.2,2.2,-0.8,1.8,2471.663,13.29,0.025,276.8
2024-04-30T03:25:03,42.805,6.029,-0.024,0.006,-0.006,104.0,102.0,102.0,13.3,1505.2,0.4,-0.7,1.8,2471.688,13.29,0.024,284.0
2024-04-30T03:28:03,42.805,6.029,-0.026,0.01,0.003,105.0,105.0,102.0,13.3,1505.2,355.3,-0.7,1.8,2471.707,13.29,0.027,291.0
2024-04-30T03:31:03,42.805,6.029,-0.011,0.007,0.0,104.0,104.0,101.0,13.4,1505.2,355.1,-0.8,1.8,2471.698,13.29,0.013,302.5
2024-04-30T03:34:03,42.805,6.029,-0.001,0.011,-0.018,105.0,105.0,102.0,13.4,1505.2,3.8,-0.7,1.8,2471.684,13.29,0.011,354.8
2024-04-30T03:37:03,42.805,6.029,-0.004,0.008,0.011,104.0,104.0,103.0,13.3,1505.2,9.7,-0.8,1.8,2471.649,13.29,0.008,333.4
2024-04-30T03:40:03,42.805,6.029,-0.036,-0.004,-0.019,102.0,104.0,101.0,13.4,1505.2,353.9,-0.7,1.8,2471.653,13.29,0.036,263.7
2024-04-30T03:43:03,42.805,6.029,-0.012,0.002,0.003,103.0,104.0,103.0,13.4,1505.2,4.3,-0.7,1.8,2471.676,13.29,0.012,279.5
2024-04-30T03:46:03,42.805,6.029,-0.024,0.006,0.015,104.0,103.0,103.0,13.4,1505.2,359.5,-0.7,1.8,2471.633,13.29,0.024,284.0
2024-04-30T03:49:03,42.805,6.029,0.002,0.0,-0.024,104.0,104.0,102.0,13.3,1505.2,5.0,-0.8,1.8,2471.646,13.29,0.002,90.0
2024-04-30T03:52:03,42.805,6.029,-0.032,-0.002,-0.001,105.0,103.0,103.0,13.4,1505.2,358.3,-0.7,1.8,2471.679,13.29,0.032,266.4
2024-04-30T03:55:03,42.805,6.029,-0.023,0.006,0.027,104.0,105.0,102.0,13.4,1505.2,6.3,-0.8,1.8,2471.678,13.29,0.023,284.6
2024-04-30T03:58:03,42.805,6.029,-0.029,0.019,0.001,104.0,104.0,102.0,13.4,1505.2,2.8,-0.7,1.8,2471.702,13.29,0.034,303.2
2024-04-30T04:04:03,42.805,6.029,-0.024,0.023,0.031,104.0,103.0,102.0,13.3,1505.2,353.9,-0.8,1.8,2471.678,13.29,0.033,313.8
2024-04-30T04:07:03,42.805,6.029,-0.024,0.014,0.001,104.0,104.0,101.0,13.4,1505.2,358.9,-0.8,1.8,2471.684,13.29,0.027,300.3
2024-04-30T04:10:03,42.805,6.029,-0.027,0.023,-0.017,104.0,104.0,102.0,13.4,1505.2,7.1,-0.7,1.8,2471.674,13.29,0.035,310.4
2024-04-30T04:13:03,42.805,6.029,-0.013,0.002,0.005,105.0,105.0,100.0,13.4,1505.2,358.3,-0.7,1.8,2471.669,13.29,0.013,278.7
2024-04-30T04:16:03,42.805,6.029,-0.034,0.006,-0.001,105.0,102.0,102.0,13.4,1505.2,0.5,-0.8,1.8,2471.67,13.29,0.034,280.0
2024-04-30T04:19:03,42.805,6.029,-0.024,0.006,-0.029,103.0,103.0,102.0,13.4,1505.2,359.4,-0.8,1.8,2471.66,13.29,0.024,284.0
2024-04-30T04:22:03,42.805,6.029,-0.017,0.022,-0.023,103.0,103.0,102.0,13.3,1505.2,3.3,-0.7,1.8,2471.672,13.29,0.027,322.3
2024-04-30T04:25:03,42.805,6.029,-0.021,0.021,-0.026,102.0,103.0,102.0,13.4,1505.2,5.7,-0.7,1.8,2471.667,13.29,0.029,315.0
2024-04-30T04:28:03,42.805,6.029,-0.022,0.013,-0.005,104.0,103.0,102.0,13.3,1505.2,6.0,-0.8,1.8,2471.654,13.29,0.025,300.6
2024-04-30T04:31:03,42.805,6.029,-0.031,-0.002,-0.026,103.0,103.0,102.0,13.4,1505.2,355.9,-0.8,1.8,2471.668,13.29,0.031,266.3
2024-04-30T04:34:03,42.805,6.029,-0.025,0.013,0.036,104.0,104.0,103.0,13.3,1505.2,3.1,-0.7,1.8,2471.639,13.29,0.028,297.5
2024-04-30T04:37:03,42.805,6.029,-0.022,0.015,0.012,103.0,103.0,102.0,13.3,1505.2,7.7,-0.7,1.8,2471.651,13.29,0.026,304.3
2024-04-30T04:40:03,42.805,6.029,-0.031,0.01,-0.024,104.0,104.0,102.0,13.4,1505.2,353.0,-0.7,1.8,2471.649,13.29,0.032,287.9
2024-04-30T04:43:03,42.805,6.029,-0.018,0.019,-0.001,103.0,106.0,101.0,13.4,1505.2,357.8,-0.8,1.8,2471.652,13.29,0.026,316.5
2024-04-30T04:46:03,42.805,6.029,-0.011,0.002,0.004,104.0,103.0,101.0,13.4,1505.2,4.0,-0.8,1.8,2471.654,13.29,0.011,280.3
2024-04-30T04:49:03,42.805,6.029,-0.022,0.021,0.017,104.0,102.0,101.0,13.4,1505.2,357.7,-0.8,1.8,2471.633,13.29,0.03,313.7
2024-04-30T04:52:03,42.805,6.029,-0.019,0.026,0.001,104.0,105.0,101.0,13.4,1505.2,10.5,-0.8,1.8,2471.685,13.29,0.032,323.8
2024-04-30T04:55:03,42.805,6.029,-0.052,0.032,0.007,104.0,102.0,102.0,13.4,1505.2,3.4,-0.7,1.8,2471.638,13.29,0.061,301.6
2024-04-30T04:58:03,42.805,6.029,-0.009,0.03,-0.012,104.0,104.0,101.0,13.4,1505.2,6.9,-0.7,1.8,2471.636,13.29,0.031,343.3
2024-04-30T05:04:03,42.805,6.029,-0.014,0.02,-0.022,105.0,103.0,101.0,13.4,1505.2,4.3,-0.8,1.8,2471.681,13.29,0.024,325.0
2024-04-30T05:07:03,42.805,6.029,-0.025,0.004,0.013,104.0,104.0,101.0,13.4,1505.2,9.2,-0.8,1.8,2471.65,13.29,0.025,279.1
2024-04-30T05:10:03,42.805,6.029,-0.023,0.019,-0.018,103.0,104.0,101.0,13.3,1505.2,5.0,-0.8,1.8,2471.68,13.29,0.029,309.6
2024-04-30T05:13:03,42.805,6.029,-0.024,0.005,-0.004,104.0,103.0,102.0,13.4,1505.2,6.1,-0.7,1.8,2471.66,13.29,0.024,281.8
2024-04-30T05:16:03,42.805,6.029,-0.013,0.029,0.024,103.0,103.0,102.0,13.3,1505.2,5.0,-0.7,1.8,2471.651,13.29,0.031,335.9
2024-04-30T05:19:03,42.805,6.029,0.002,0.019,0.008,104.0,103.0,103.0,13.3,1505.2,354.2,-0.7,1.8,2471.624,13.29,0.019,6.0
2024-04-30T05:22:03,42.805,6.029,0.005,0.008,0.023,105.0,104.0,102.0,13.4,1505.2,0.0,-0.8,1.8,2471.621,13.29,0.009,32.0
2024-04-30T05:25:03,42.805,6.029,-0.013,0.004,-0.027,104.0,104.0,101.0,13.4,1505.2,2.0,-0.8,1.8,2471.645,13.29,0.013,287.1
2024-04-30T05:28:03,42.805,6.029,-0.029,0.012,0.005,104.0,104.0,102.0,13.3,1505.2,3.8,-0.8,1.8,2471.641,13.29,0.031,292.5
2024-04-30T05:31:03,42.805,6.029,-0.018,0.028,0.0,104.0,103.0,102.0,13.4,1505.2,355.3,-0.7,1.8,2471.637,13.29,0.033,327.3
2024-04-30T05:34:03,42.805,6.029,-0.02,0.004,-0.003,103.0,103.0,102.0,13.4,1505.2,0.0,-0.8,1.8,2471.652,13.29,0.02,281.3
2024-04-30T05:37:03,42.805,6.029,-0.019,0.017,-0.007,105.0,105.0,101.0,13.3,1505.2,9.4,-0.8,1.8,2471.614,13.29,0.025,311.8
2024-04-30T05:40:03,42.805,6.029,-0.012,0.018,0.012,107.0,104.0,102.0,13.4,1505.2,357.3,-0.7,1.8,2471.661,13.29,0.021,326.3
2024-04-30T05:43:03,42.805,6.029,0.002,0.016,-0.003,105.0,104.0,103.0,13.4,1505.2,1.0,-0.8,1.8,2471.623,13.29,0.016,7.1
2024-04-30T05:46:03,42.805,6.029,-0.016,0.016,0.013,104.0,104.0,102.0,13.4,1505.2,2.7,-0.7,1.8,2471.599,13.29,0.022,315.0
2024-04-30T05:49:03,42.805,6.029,-0.023,0.03,-0.01,104.0,103.0,102.0,13.4,1505.2,2.1,-0.8,1.8,2471.593,13.29,0.037,322.5
2024-04-30T05:52:03,42.805,6.029,-0.016,0.004,0.023,104.0,103.0,102.0,13.3,1505.2,357.7,-0.8,1.8,2471.636,13.29,0.016,284.0
2024-04-30T05:55:03,42.805,6.029,-0.025,0.0,-0.018,105.0,103.0,101.0,13.3,1505.2,0.5,-0.8,1.8,2471.627,13.29,0.025,270.0
2024-04-30T05:58:03,42.805,6.029,0.001,0.0,0.009,105.0,105.0,101.0,13.3,1505.2,0.4,-0.7,1.9,2471.608,13.29,0.001,90.0
2024-04-30T06:04:03,42.805,6.029,-0.021,0.012,0.01,106.0,104.0,102.0,13.4,1505.2,357.7,-0.7,1.8,2471.661,13.29,0.024,299.7
2024-04-30T06:07:03,42.805,6.029,-0.017,0.015,-0.007,104.0,104.0,102.0,13.4,1505.2,0.5,-0.8,1.8,2471.643,13.29,0.022,311.4
2024-04-30T06:10:03,42.805,6.029,-0.005,0.002,-0.017,104.0,104.0,101.0,13.3,1505.2,4.3,-0.7,1.8,2471.647,13.29,0.005,291.8
2024-04-30T06:13:03,42.805,6.029,-0.022,-0.001,-0.018,103.0,104.0,102.0,13.4,1505.2,2.5,-0.8,1.8,2471.638,13.29,0.022,267.4
2024-04-30T06:16:03,42.805,6.029,-0.032,0.036,0.029,104.0,103.0,102.0,13.4,1505.2,5.4,-0.8,1.8,2471.667,13.29,0.048,318.4
2024-04-30T06:19:03,42.805,6.029,-0.015,0.015,-0.02,104.0,104.0,102.0,13.3,1505.2,2.0,-0.8,1.8,2471.649,13.29,0.021,315.0
2024-04-30T06:22:03,42.805,6.029,-0.017,0.008,-0.001,104.0,104.0,102.0,13.4,1505.2,353.0,-0.7,1.8,2471.647,13.29,0.018,295.2
2024-04-30T06:25:03,42.805,6.029,-0.01,0.005,0.024,103.0,104.0,102.0,13.4,1505.2,5.5,-0.8,1.8,2471.629,13.29,0.011,296.6
2024-04-30T06:28:03,42.805,6.029,-0.023,0.016,0.012,105.0,104.0,102.0,13.4,1505.2,358.4,-0.8,1.8,2471.598,13.29,0.028,304.8
2024-04-30T06:31:03,42.805,6.029,-0.003,0.033,0.022,104.0,103.0,102.0,13.4,1505.2,359.4,-0.8,1.8,2471.632,13.29,0.033,354.8
2024-04-30T06:34:03,42.805,6.029,-0.006,0.0,0.029,106.0,104.0,101.0,13.4,1505.2,9.9,-0.8,1.8,2471.612,13.29,0.006,270.0
2024-04-30T06:37:03,42.805,6.029,-0.035,0.017,-0.011,105.0,104.0,102.0,13.4,1505.2,354.1,-0.8,1.8,2471.623,13.29,0.038,295.9
2024-04-30T06:40:03,42.805,6.029,-0.026,0.004,0.043,104.0,104.0,102.0,13.4,1505.2,6.4,-0.8,1.8,2471.621,13.29,0.026,278.7
2024-04-30T06:43:03,42.805,6.029,-0.015,0.014,-0.006,104.0,103.0,101.0,13.4,1505.2,4.0,-0.8,1.8,2471.591,13.29,0.02,313.0
2024-04-30T06:46:03,42.805,6.029,-0.021,0.025,0.014,104.0,105.0,101.0,13.4,1505.2,357.8,-0.8,1.8,2471.6,13.29,0.032,320.0
2024-04-30T06:49:03,42.805,6.029,-0.021,0.014,0.01,104.0,104.0,102.0,13.4,1505.2,354.2,-0.7,1.8,2471.644,13.29,0.025,303.7
2024-04-30T06:52:03,42.805,6.029,-0.021,0.002,0.0,103.0,104.0,102.0,13.4,1505.2,3.0,-0.8,1.8,2471.622,13.29,0.021,275.4
2024-04-30T06:55:03,42.805,6.029,-0.008,0.023,-0.012,105.0,102.0,102.0,13.4,1505.2,8.3,-0.7,1.8,2471.619,13.29,0.024,340.8
2024-04-30T06:58:03,42.805,6.029,-0.019,0.014,0.0,105.0,103.0,101.0,13.4,1505.2,1.1,-0.7,1.8,2471.602,13.29,0.023,306.4
2024-04-30T07:04:03,42.805,6.029,-0.027,0.005,-0.043,104.0,104.0,102.0,13.4,1505.2,354.5,-0.8,1.8,2471.672,13.29,0.027,280.5
2024-04-30T07:07:03,42.805,6.029,-0.022,0.002,-0.007,105.0,105.0,101.0,13.4,1505.2,358.9,-0.8,1.8,2471.63,13.29,0.022,275.2
2024-04-30T07:10:03,42.805,6.029,-0.017,0.001,-0.015,104.0,103.0,102.0,13.3,1505.2,359.5,-0.8,1.8,2471.683,13.29,0.017,273.4
2024-04-30T07:13:03,42.805,6.029,0.0,0.008,-0.003,103.0,104.0,101.0,13.4,1505.2,4.9,-0.7,1.8,2471.629,13.29,0.008,0.0
2024-04-30T07:16:03,42.805,6.029,0.0,0.015,0.028,106.0,104.0,102.0,13.3,1505.2,2.2,-0.8,1.8,2471.631,13.29,0.015,0.0
2024-04-30T07:19:03,42.805,6.029,-0.017,0.003,-0.013,103.0,104.0,102.0,13.4,1505.2,359.0,-0.8,1.8,2471.615,13.29,0.017,280.0
2024-04-30T07:22:03,42.805,6.029,-0.012,0.018,0.011,105.0,103.0,102.0,13.4,1505.2,6.3,-0.8,1.8,2471.642,13.29,0.021,326.3
2024-04-30T07:25:03,42.805,6.029,-0.024,0.025,-0.006,105.0,104.0,101.0,13.3,1505.2,8.7,-0.8,1.8,2471.612,13.29,0.034,316.2
2024-04-30T07:28:03,42.805,6.029,-0.025,0.04,0.011,104.0,103.0,101.0,13.4,1505.2,354.4,-0.8,1.8,2471.622,13.29,0.047,328.0
2024-04-30T07:31:03,42.805,6.029,-0.031,0.011,-0.004,104.0,103.0,101.0,13.3,1505.2,358.4,-0.8,1.8,2471.615,13.29,0.032,289.5
2024-04-30T07:34:03,42.805,6.029,-0.016,0.022,0.025,104.0,103.0,102.0,13.3,1505.2,3.4,-0.7,1.8,2471.632,13.29,0.027,324.0
2024-04-30T07:37:03,42.805,6.029,-0.008,0.01,0.003,104.0,103.0,101.0,13.4,1505.2,1.1,-0.7,1.8,2471.639,13.29,0.012,321.3
2024-04-30T07:40:03,42.805,6.029,-0.024,0.01,-0.024,104.0,105.0,102.0,13.4,1505.2,358.9,-0.7,1.8,2471.608,13.29,0.026,292.6
2024-04-30T07:43:03,42.805,6.029,-0.015,0.022,-0.006,104.0,105.0,102.0,13.4,1505.2,353.0,-0.8,1.8,2471.626,13.29,0.026,325.7
2024-04-30T07:46:03,42.805,6.029,0.008,0.004,0.005,104.0,104.0,102.0,13.4,1505.2,359.4,-0.8,1.8,2471.637,13.29,0.008,63.4
2024-04-30T07:49:03,42.805,6.029,-0.009,0.018,0.022,104.0,104.0,102.0,13.4,1505.2,9.1,-0.7,1.8,2471.631,13.29,0.02,333.4
2024-04-30T07:52:03,42.805,6.029,-0.014,0.005,0.025,104.0,103.0,102.0,13.3,1505.2,356.6,-0.7,1.8,2471.614,13.29,0.014,289.6
2024-04-30T07:55:03,42.805,6.029,-0.015,0.005,-0.016,104.0,104.0,101.0,13.3,1505.2,358.3,-0.8,1.8,2471.652,13.29,0.015,288.4
2024-04-30T07:58:03,42.805,6.029,-0.018,0.03,0.008,104.0,103.0,102.0,13.4,1505.2,358.3,-0.8,1.8,2471.612,13.29,0.034,329.0
2024-04-30T08:04:03,42.805,6.029,-0.018,0.024,-0.025,104.0,104.0,102.0,13.4,1505.2,358.3,-0.8,1.9,2471.671,13.29,0.03,323.1
2024-04-30T08:07:03,42.805,6.029,-0.017,0.023,0.028,104.0,103.0,102.0,13.4,1505.2,3.8,-0.8,1.8,2471.673,13.29,0.028,323.5
2024-04-30T08:10:03,42.805,6.029,-0.014,-0.005,0.004,109.0,104.0,102.0,13.4,1505.2,358.4,-0.8,1.8,2471.651,13.29,0.014,250.4
2024-04-30T08:13:03,42.805,6.029,-0.033,0.023,-0.013,104.0,104.0,102.0,13.4,1505.2,2.0,-0.8,1.8,2471.639,13.29,0.04,304.9
2024-04-30T08:16:03,42.805,6.029,-0.009,0.03,0.019,103.0,104.0,102.0,13.4,1505.2,9.1,-0.8,1.8,2471.643,13.29,0.031,343.3
2024-04-30T08:19:03,42.805,6.029,-0.009,0.017,-0.014,104.0,104.0,102.0,13.4,1505.2,356.4,-0.8,1.8,2471.623,13.29,0.019,332.1
2024-04-30T08:22:03,42.805,6.029,-0.032,0.031,0.015,103.0,104.0,102.0,13.4,1505.2,2.6,-0.8,1.8,2471.643,13.29,0.044,314.1
2024-04-30T08:25:03,42.805,6.029,0.006,0.024,0.01,104.0,106.0,102.0,13.3,1505.2,6.2,-0.8,1.8,2471.649,13.29,0.024,14.0
2024-04-30T08:28:03,42.805,6.029,-0.013,0.018,-0.028,104.0,104.0,101.0,13.4,1505.2,358.8,-0.7,1.8,2471.653,13.29,0.022,324.2
2024-04-30T08:31:03,42.805,6.029,-0.006,0.029,0.0,104.0,105.0,102.0,13.3,1505.2,4.0,-0.8,1.8,2471.649,13.29,0.029,348.3
2024-04-30T08:34:03,42.805,6.029,-0.014,-0.007,0.006,108.0,105.0,101.0,13.3,1505.2,358.4,-0.8,1.8,2471.625,13.29,0.015,243.4
2024-04-30T08:37:03,42.805,6.029,-0.004,0.025,0.003,104.0,105.0,102.0,13.4,1505.2,9.6,-0.8,1.8,2471.652,13.29,0.025,350.9
2024-04-30T08:40:03,42.805,6.029,-0.019,-0.005,-0.018,104.0,107.0,102.0,13.4,1505.2,0.0,-0.7,1.8,2471.674,13.29,0.019,255.3
2024-04-30T08:43:03,42.805,6.029,-0.014,0.032,-0.01,105.0,105.0,102.0,13.4,1505.2,9.7,-0.8,1.8,2471.595,13.29,0.034,336.4
2024-04-30T08:46:03,42.805,6.029,0.006,-0.003,0.021,104.0,105.0,102.0,13.3,1505.2,358.9,-0.8,1.8,2471.643,13.29,0.006,116.6
2024-04-30T08:49:03,42.805,6.029,-0.018,0.015,-0.03,104.0,106.0,102.0,13.3,1505.2,1.6,-0.8,1.8,2471.616,13.29,0.023,309.8
2024-04-30T08:52:03,42.805,6.029,-0.008,0.013,0.008,105.0,105.0,103.0,13.4,1505.2,358.4,-0.8,1.8,2471.653,13.29,0.015,328.4
2024-04-30T08:55:03,42.805,6.029,-0.002,0.008,0.007,104.0,104.0,101.0,13.4,1505.2,9.1,-0.7,1.8,2471.635,13.29,0.008,346.0
2024-04-30T08:58:03,42.805,6.029,-0.028,0.04,-0.015,103.0,105.0,102.0,13.4,1505.2,0.9,-0.8,1.8,2471.632,13.29,0.048,325.0
2024-04-30T09:04:03,42.805,6.029,-0.027,0.003,0.0,104.0,105.0,102.0,13.4,1505.2,6.4,-0.8,1.8,2471.648,13.29,0.027,276.3
2024-04-30T09:07:03,42.805,6.029,-0.011,0.028,-0.014,104.0,105.0,102.0,13.3,1505.2,6.4,-0.8,1.8,2471.666,13.29,0.03,338.6
2024-04-30T09:10:03,42.805,6.029,-0.032,0.014,-0.008,105.0,104.0,101.0,13.4,1505.2,358.4,-0.8,1.8,2471.643,13.29,0.034,293.6
2024-04-30T09:13:03,42.805,6.029,-0.023,0.034,0.011,104.0,105.0,101.0,13.4,1505.2,9.1,-0.7,1.8,2471.643,13.29,0.041,325.9
2024-04-30T09:16:03,42.805,6.029,-0.009,0.011,-0.005,103.0,104.0,102.0,13.3,1505.2,0.0,-0.8,1.9,2471.646,13.29,0.014,320.7
2024-04-30T09:19:03,42.805,6.029,0.007,0.008,0.005,105.0,104.0,102.0,13.4,1505.2,5.0,-0.8,1.8,2471.649,13.29,0.01,41.2
2024-04-30T09:22:03,42.805,6.029,-0.005,0.012,0.002,107.0,104.0,103.0,13.4,1505.2,6.1,-0.8,1.8,2471.67,13.29,0.013,337.4
2024-04-30T09:25:03,42.805,6.029,-0.009,0.016,0.006,104.0,105.0,101.0,13.4,1505.2,3.9,-0.8,1.8,2471.629,13.29,0.018,330.6
2024-04-30T09:28:03,42.805,6.029,-0.005,0.012,0.03,104.0,103.0,102.0,13.3,1505.2,1.6,-0.7,1.8,2471.629,13.29,0.013,337.4
2024-04-30T09:31:03,42.805,6.029,-0.008,0.005,0.008,105.0,105.0,102.0,13.4,1505.2,4.5,-0.8,1.8,2471.64,13.29,0.009,302.0
2024-04-30T09:34:03,42.805,6.029,-0.014,0.025,0.033,105.0,105.0,102.0,13.4,1505.2,5.6,-0.7,1.8,2471.664,13.29,0.028,330.7
2024-04-30T09:37:03,42.805,6.029,-0.015,0.017,-0.001,104.0,103.0,102.0,13.4,1505.2,359.4,-0.8,1.8,2471.625,13.29,0.022,318.6
2024-04-30T09:40:03,42.805,6.029,-0.005,0.02,0.004,104.0,105.0,101.0,13.4,1505.2,6.3,-0.7,1.8,2471.662,13.29,0.02,346.0
2024-04-30T09:43:03,42.805,6.029,0.016,0.025,0.016,106.0,103.0,101.0,13.4,1505.2,359.4,-0.8,1.8,2471.609,13.29,0.029,32.6
2024-04-30T09:46:03,42.805,6.029,-0.002,0.014,0.02,103.0,103.0,102.0,13.3,1505.2,9.0,-0.8,1.8,2471.64,13.29,0.014,351.9
2024-04-30T09:49:03,42.805,6.029,-0.004,0.025,0.014,104.0,104.0,102.0,13.4,1505.2,6.6,-0.8,1.8,2471.637,13.29,0.025,350.9
2024-04-30T09:52:03,42.805,6.029,-0.018,0.01,0.021,105.0,103.0,102.0,13.4,1505.2,5.5,-0.7,1.8,2471.617,13.29,0.02,299.1
2024-04-30T09:55:03,42.805,6.029,-0.018,0.021,0.02,104.0,104.0,102.0,13.4,1505.2,358.4,-0.7,1.8,2471.668,13.29,0.027,319.4
2024-04-30T09:58:03,42.805,6.029,0.003,0.015,0.016,104.0,104.0,101.0,13.3,1505.2,4.8,-0.8,1.9,2471.643,13.29,0.015,11.3
2024-04-30T10:04:03,42.805,6.029,-0.002,0.036,-0.009,103.0,105.0,102.0,13.4,1505.2,4.3,-0.8,1.8,2471.687,13.29,0.036,356.8